Flag for Switzerland Weather past 2 weeks in Horw, Lucerne, Switzerland

Now
61 °F

Cool.


Feels Like: 61 °F
Forecast: 46 / 64 °F
Wind: 9 mph from Southwest

Location: Giswil

Current Time: Sep 21, 2014 at 8:18:21 PM

Latest Report: Sep 21, 2014 at 7:00 PM


Visibility: N/A

Pressure: 30.03 "Hg

Humidity: 76%

Dew point: 53 °F

Location of HorwLocation

Historic Weather in Horw — Graph

°F

Horw temperature yesterday

Maximum temperature yesterday: 72 °F (at 3:00 PM)
Minimum temperature yesterday: 54 °F (at 6:00 AM)
Average temperature yesterday: 62 °F

Past Weeks' High & Low Weather Summary

 TemperatureHumidityPressure
High76 °F (Sep 7, 4:00 PM)100% (Sep 7, 5:00 AM)30.14 "Hg (Sep 7, 5:00 AM)
Low49 °F (Sep 16, 7:00 AM)49% (Sep 21, 2:00 PM)29.81 "Hg (Sep 17, 5:00 PM)
Average61 °F85%29.99 "Hg
* Reported Sep 6 7:00 PM — Sep 21 7:00 PM, Horw, Weather by CustomWeather, © 2014

Note: Actual official high and low records may vary slightly from our data, if they occured in-between our weather recording intervals... More about our weather records

Advertising

Horw weather history for previous 24 hours

 ConditionsComfort  
Time TempWeatherWind HumidityBarometerVisibility
7:00 PM
Sep 21
61 °FCool.9 mph76%30.03 "HgN/A
6:00 PM62 °FCool.6 mph74%30.03 "HgN/A
5:00 PM65 °FMild.3 mph76%29.98 "HgN/A
4:00 PM68 °FMild.6 mph70%29.96 "HgN/A
3:00 PM73 °FMild.13 mph49%29.92 "HgN/A
2:00 PM73 °FMild.14 mph49%29.94 "HgN/A
1:00 PM67 °FMild.3 mph71%29.99 "HgN/A
12:00 PM64 °FMild.3 mph83%30.03 "HgN/A
11:00 AM63 °FMild.No wind84%30.05 "HgN/A
10:00 AM61 °FCool.2 mph91%30.05 "HgN/A
9:00 AM60 °FCool.1 mph95%30.06 "HgN/A
8:00 AM59 °FCool.2 mph99%30.07 "HgN/A
7:00 AM59 °FCool.3 mph100%30.08 "HgN/A
6:00 AM58 °FCool.1 mph99%30.06 "HgN/A
5:00 AM59 °FCool.1 mph99%30.05 "HgN/A
4:00 AM59 °FCool.2 mph99%30.07 "HgN/A
3:00 AM59 °FCool.1 mph97%30.07 "HgN/A
2:00 AM60 °FCool.2 mph96%30.07 "HgN/A
1:00 AM59 °FCool.No wind98%30.08 "HgN/A
12:00 AM60 °FCool.3 mph96%30.07 "HgN/A
11:00 PM
Sep 20
61 °FCool.2 mph90%30.07 "HgN/A
10:00 PM63 °FMild.6 mph79%30.06 "HgN/A
9:00 PM65 °FMild.9 mph71%30.05 "HgN/A
8:00 PM65 °FMild.9 mph74%30.03 "HgN/A
Weather by CustomWeather, © 2014

See weather overviewHow to use our weather pages